CW1509 Weather Reports


Display with metric or nautical units.
time (UTC)temp
F
wind
direction
speed
MPH
gust
MPH
rain 1hr
in
rain 24hr
in
rain mn
in
humidity
%
barometer
mb
20260906110931 63 63 0.0 4.0 0.00 0.00 0.00 90 1018.6
20260906110426 63 39 2.0 4.0 0.00 0.00 0.00 90 1018.7
20260906105915 63 46 1.0 4.0 0.00 0.00 0.00 90 1018.7
20260906105416 63 65 0.0 2.0 0.00 0.00 0.00 91 1018.6
20260906104915 63 65 0.0 0.0 0.00 0.00 0.00 91 1018.6
20260906104434 63 65 0.0 0.0 0.00 0.00 0.00 91 1018.5
20260906103912 63 65 0.0 0.0 0.00 0.00 0.00 91 1018.5
20260906103431 63 65 0.0 0.0 0.00 0.00 0.00 91 1018.5
20260906102929 63 65 0.0 0.0 0.00 0.00 0.00 91 1018.4
20260906102449 63 65 0.0 0.0 0.00 0.00 0.00 91 1018.3
20260906101947 64 65 0.0 0.0 0.00 0.00 0.00 91 1018.3
20260906101427 64 65 0.0 0.0 0.00 0.00 0.00 91 1018.2
20260906100924 64 65 0.0 0.0 0.00 0.00 0.00 91 1018.1
20260906100423 64 65 0.0 0.0 0.00 0.00 0.00 91 1018.3
20260906095920 64 65 0.0 0.0 0.00 0.00 0.00 91 1018.2
20260906095418 64 65 0.0 0.0 0.00 0.00 0.00 91 1018.2
20260906094919 64 65 0.0 0.0 0.00 0.00 0.00 91 1018.0
20260906094417 64 65 0.0 0.0 0.00 0.00 0.00 91 1018.1
20260906093936 64 65 0.0 0.0 0.00 0.00 0.00 91 1018.0
20260906093415 64 65 0.0 0.0 0.00 0.00 0.00 90 1018.0
20260906092914 65 65 0.0 0.0 0.00 0.00 0.00 90 1017.9
20260906092413 65 65 0.0 0.0 0.00 0.00 0.00 90 1018.0
20260906091913 65 65 0.0 0.0 0.00 0.00 0.00 90 1018.0
20260906091413 65 65 0.0 0.0 0.00 0.00 0.00 90 1017.9
20260906090912 65 65 0.0 0.0 0.00 0.00 0.00 91 1018.0
20260906090410 65 65 0.0 0.0 0.00 0.00 0.00 91 1017.9
20260906085930 65 65 0.0 0.0 0.00 0.00 0.00 91 1017.9
20260906085424 65 65 0.0 0.0 0.00 0.00 0.00 91 1017.7
20260906084924 65 65 0.0 0.0 0.00 0.00 0.00 91 1017.7
20260906084422 65 65 0.0 0.0 0.00 0.00 0.00 91 1017.7
20260906083921 65 65 0.0 0.0 0.00 0.00 0.00 91 1017.7
20260906083441 66 65 0.0 0.0 0.00 0.00 0.00 91 1017.7
20260906082919 65 65 0.0 0.0 0.00 0.00 0.00 91 1017.6
20260906082419 66 65 0.0 0.0 0.00 0.00 0.00 91 1017.5
20260906081939 66 65 0.0 0.0 0.00 0.00 0.00 91 1017.6
20260906081437 66 65 0.0 2.0 0.00 0.00 0.00 91 1017.6
20260906080917 66 69 0.0 2.0 0.00 0.00 0.00 90 1017.6
20260906080437 66 69 1.0 2.0 0.00 0.00 0.00 90 1017.5
20260906075915 66 55 0.0 1.0 0.00 0.00 0.00 90 1017.5
20260906075414 66 57 0.0 3.0 0.00 0.00 0.00 90 1017.5
20260906074934 66 26 1.0 3.0 0.00 0.00 0.00 90 1017.5
20260906074412 66 62 0.0 3.0 0.00 0.00 0.00 90 1017.6
20260906073911 66 42 2.0 3.0 0.00 0.00 0.00 90 1017.5
20260906073410 66 76 0.0 3.0 0.00 0.00 0.00 90 1017.4
20260906072909 67 36 0.0 3.0 0.00 0.00 0.00 90 1017.4
20260906072428 67 41 1.0 2.0 0.00 0.00 0.00 89 1017.3
20260906071926 67 69 0.0 2.0 0.00 0.00 0.00 89 1017.6
20260906071425 67 50 0.0 3.0 0.00 0.00 0.00 89 1017.5
20260906070924 67 50 0.0 3.0 0.00 0.00 0.00 89 1017.5
20260906070444 67 42 0.0 3.0 0.00 0.00 0.00 89 1017.4
20260906065941 67 58 1.0 4.0 0.00 0.00 0.00 89 1017.4
20260906065420 67 49 1.0 4.0 0.00 0.00 0.00 89 1017.6
20260906064918 68 44 1.0 3.0 0.00 0.00 0.00 90 1017.7
20260906064438 68 44 1.0 4.0 0.00 0.00 0.00 90 1017.7
20260906063917 68 55 2.0 4.0 0.00 0.00 0.00 90 1017.6
20260906063437 68 74 1.0 4.0 0.00 0.00 0.00 90 1017.7
20260906062914 68 49 1.0 2.0 0.00 0.00 0.00 90 1017.7
20260906062414 68 57 1.0 4.0 0.00 0.00 0.00 90 1017.7
20260906061913 68 57 1.0 4.0 0.00 0.00 0.00 90 1017.7
20260906061413 69 53 0.0 2.0 0.00 0.00 0.00 90 1017.6
20260906060913 69 61 0.0 2.0 0.00 0.00 0.00 90 1017.6
20260906060412 69 50 0.0 4.0 0.00 0.00 0.00 90 1017.4
20260906055912 69 43 2.0 5.0 0.00 0.00 0.00 89 1017.5
20260906055410 69 62 1.0 5.0 0.00 0.00 0.00 90 1017.4
20260906054929 69 27 2.0 4.0 0.00 0.00 0.00 90 1017.3
20260906054427 69 47 1.0 3.0 0.00 0.00 0.00 90 1017.3
20260906053926 70 31 0.0 3.0 0.00 0.00 0.00 90 1017.1
20260906053425 70 64 1.0 4.0 0.00 0.00 0.00 90 1017.1
20260906052925 70 76 2.0 5.0 0.00 0.00 0.00 90 1017.0
20260906052423 70 43 2.0 5.0 0.00 0.00 0.00 89 1017.0
20260906051922 70 52 1.0 5.0 0.00 0.00 0.00 90 1017.0
20260906051421 71 59 1.0 5.0 0.00 0.00 0.00 89 1017.0
20260906050919 71 77 1.0 5.0 0.00 0.00 0.00 89 1016.9
20260906050417 71 360 1.0 3.0 0.00 0.00 0.00 89 1017.0
20260906045916 71 55 0.0 2.0 0.00 0.00 0.00 89 1016.9
20260906045414 71 61 0.0 3.0 0.00 0.00 0.00 89 1017.0
20260906044930 71 55 1.0 3.0 0.00 0.00 0.00 88 1017.0
20260906044427 71 42 1.0 3.0 0.00 0.00 0.00 88 1016.9
20260906043927 71 44 0.0 5.0 0.00 0.00 0.00 88 1016.9
20260906043426 72 57 2.0 5.0 0.00 0.00 0.00 88 1017.0
20260906042946 72 25 0.0 2.0 0.00 0.00 0.00 88 1016.8
20260906042423 72 45 1.0 3.0 0.00 0.00 0.00 87 1016.9
20260906041942 72 74 1.0 3.0 0.00 0.00 0.00 87 1016.9
20260906041421 72 57 0.0 1.0 0.00 0.00 0.00 87 1016.9
20260906040921 72 40 0.0 2.0 0.00 0.00 0.00 87 1016.8
20260906040419 72 38 1.0 3.0 0.00 0.01 0.00 87 1016.9
20260906035918 72 50 0.0 3.0 0.00 0.01 0.00 87 1016.9
20260906035419 72 52 1.0 3.0 0.00 0.01 0.00 87 1016.9
20260906034918 72 9 0.0 3.0 0.00 0.01 0.00 87 1016.9
20260906034417 72 9 1.0 3.0 0.00 0.01 0.00 87 1016.8
20260906033936 72 20 0.0 0.0 0.00 0.01 0.00 87 1016.8
20260906033424 72 20 0.0 1.0 0.00 0.01 0.00 87 1016.8
20260906032923 72 84 0.0 1.0 0.00 0.01 0.00 87 1016.7
20260906032404 72 5 0.0 2.0 0.00 0.01 0.00 87 1016.7
20260906031744 72 5 1.0 2.0 0.00 0.01 0.00 87 1016.6
20260906031001 72 48 0.0 2.0 0.00 0.01 0.00 87 1016.7
20260906030528 72 49 0.0 2.0 0.00 0.01 0.00 86 1016.7
20260906025913 72 5 0.0 0.0 0.00 0.01 0.00 86 1016.6
20260906025714 72 15 0.0 0.0 0.00 0.01 0.00 86 1016.6
20260906025158 72 66 0.0 0.0 0.00 0.01 0.00 86 1016.7
20260906024706 72 61 0.0 0.0 0.00 0.01 0.00 86 1016.6
20260906023919 72 61 0.0 0.0 0.00 0.01 0.00 86 1016.6
20260906023504 72 61 0.0 0.0 0.00 0.01 0.00 85 1016.5
20260906022915 72 61 0.0 3.0 0.00 0.01 0.00 85 1016.5
20260906022522 72 48 1.0 3.0 0.00 0.01 0.00 85 1016.5
20260906021920 72 82 1.0 3.0 0.00 0.01 0.00 85 1016.4
20260906021419 73 80 1.0 3.0 0.00 0.01 0.00 85 1016.4
20260906021004 73 44 1.0 4.0 0.00 0.01 0.00 85 1016.3
20260906020413 73 54 1.0 4.0 0.00 0.01 0.00 84 1016.3
20260906015933 73 26 1.0 4.0 0.00 0.01 0.00 84 1016.3
20260906015410 73 30 2.0 4.0 0.00 0.01 0.00 84 1016.3
20260906014930 73 355 0.0 4.0 0.00 0.01 0.00 84 1016.2
20260906014548 73 67 1.0 4.0 0.00 0.01 0.00 84 1016.2
20260906013925 73 10 1.0 6.0 0.00 0.01 0.00 84 1016.2
20260906013424 73 5 1.0 4.0 0.00 0.01 0.00 84 1016.1
20260906012435 73 5 1.0 5.0 0.00 0.01 0.00 84 1016.1
20260906011913 73 60 1.0 5.0 0.00 0.01 0.00 84 1015.8
20260906011412 73 54 1.0 3.0 0.00 0.01 0.00 84 1015.8
20260906010922 73 40 0.0 3.0 0.00 0.01 0.00 84 1015.6
20260906010431 73 27 1.0 5.0 0.00 0.01 0.00 84 1015.7
20260906005909 73 32 3.0 6.0 0.00 0.01 0.00 84 1015.7
20260906005512 74 72 3.0 6.0 0.00 0.01 0.00 84 1015.7
20260906004941 74 53 2.0 4.0 0.00 0.01 0.00 84 1015.6
20260906004419 74 57 1.0 4.0 0.00 0.01 0.00 84 1015.6
20260906004005 74 18 0.0 4.0 0.00 0.01 0.00 84 1015.7
20260906003424 74 78 2.0 9.0 0.00 0.01 0.00 84 1015.6
20260906002923 74 30 4.0 9.0 0.00 0.01 0.00 84 1015.5
20260906002530 74 75 2.0 6.0 0.00 0.01 0.00 85 1015.5
20260906001916 74 44 0.0 5.0 0.00 0.01 0.00 85 1015.5
20260906001435 74 59 2.0 5.0 0.00 0.01 0.00 84 1015.2
20260906000935 75 34 0.0 4.0 0.00 0.01 0.00 84 1015.2
20260906000449 75 69 1.0 5.0 0.00 0.01 0.00 84 1015.2
20260905235948 75 58 1.0 5.0 0.00 0.01 0.00 84 1015.2
20260905235425 75 39 0.0 6.0 0.00 0.01 0.00 83 1015.1
20260905234917 75 12 2.0 6.0 0.00 0.01 0.00 83 1015.1
20260905234610 75 11 2.0 7.0 0.00 0.01 0.00 83 1015.0
20260905234015 76 16 3.0 10.0 0.00 0.01 0.00 82 1015.2
20260905233410 76 5 3.0 6.0 0.00 0.01 0.00 82 1015.2
20260905233124 76 5 1.0 4.0 0.00 0.01 0.00 82 1015.1
20260905232421 76 61 2.0 5.0 0.00 0.01 0.00 82 1015.0
20260905231921 77 33 2.0 5.0 0.00 0.01 0.00 82 1015.1
20260905231409 77 5 3.0 9.0 0.00 0.01 0.00 81 1015.0
20260905230935 77 25 4.0 9.0 0.00 0.01 0.00 81 1014.9
20260905230518 78 53 2.0 6.0 0.00 0.01 0.00 82 1014.8
20260905225928 78 9 3.0 8.0 0.00 0.01 0.00 81 1014.6
20260905225429 78 18 2.0 8.0 0.00 0.01 0.00 81 1014.6
20260905224928 79 59 3.0 8.0 0.00 0.01 0.00 80 1014.6
20260905224430 79 360 2.0 5.0 0.00 0.01 0.00 80 1014.5
20260905223416 80 37 2.0 7.0 0.00 0.01 0.00 79 1014.4
20260905222911 80 40 2.0 6.0 0.00 0.01 0.00 79 1014.3
20260905222431 80 49 2.0 8.0 0.00 0.01 0.00 79 1014.2
20260905222044 80 34 3.0 8.0 0.00 0.01 0.00 78 1014.1
20260905221425 80 19 3.0 6.0 0.00 0.01 0.00 77 1014.0
20260905220909 80 5 1.0 3.0 0.00 0.01 0.00 78 1014.0
20260905215425 81 360 1.0 6.0 0.00 0.01 0.00 76 1013.9
20260905215118 81 69 2.0 6.0 0.00 0.01 0.00 76 1013.8
20260905214436 81 17 1.0 4.0 0.00 0.01 0.00 75 1013.8
20260905214043 81 30 1.0 5.0 0.00 0.01 0.00 76 1013.8
20260905213432 81 360 1.0 5.0 0.00 0.01 0.00 76 1013.8
20260905212918 81 5 0.0 4.0 0.00 0.01 0.00 76 1013.8
20260905212718 81 5 1.0 4.0 0.00 0.01 0.00 75 1013.8
20260905212023 82 355 1.0 9.0 0.00 0.01 0.00 75 1013.8
20260905211415 82 38 3.0 6.0 0.00 0.01 0.00 74 1013.8
20260905211317 82 47 4.0 6.0 0.00 0.01 0.00 74 1013.8
20260905210512 82 13 1.0 3.0 0.00 0.01 0.00 75 1013.7
20260905205911 82 41 1.0 6.0 0.00 0.01 0.00 76 1013.7
20260905205516 82 5 3.0 6.0 0.00 0.01 0.00 75 1013.6
20260905203928 83 317 2.0 4.0 0.00 0.01 0.00 74 1013.7
20260905203418 83 12 3.0 8.0 0.00 0.01 0.00 74 1013.7
20260905203112 83 67 2.0 8.0 0.00 0.01 0.00 73 1013.7
20260905202430 83 28 1.0 4.0 0.00 0.01 0.00 75 1013.8
20260905201920 83 323 1.0 3.0 0.00 0.01 0.00 75 1013.7
20260905200911 83 355 1.0 9.0 0.00 0.01 0.00 74 1013.9
20260905200507 83 9 1.0 9.0 0.00 0.01 0.00 74 1013.9
20260905195501 83 13 2.0 4.0 0.00 0.01 0.00 74 1013.9
20260905195007 83 355 1.0 2.0 0.00 0.01 0.00 75 1013.8
20260905194605 83 333 1.0 5.0 0.00 0.01 0.00 74 1013.9
20260905193924 84 55 3.0 6.0 0.00 0.01 0.00 73 1013.9
20260905193638 84 60 2.0 6.0 0.00 0.01 0.00 73 1014.0
20260905192955 84 24 2.0 6.0 0.00 0.01 0.00 72 1014.0
20260905192429 84 331 1.0 6.0 0.00 0.01 0.00 73 1013.9
20260905191521 85 72 1.0 4.0 0.00 0.01 0.00 72 1014.0
20260905190920 85 355 2.0 5.0 0.00 0.01 0.00 72 1014.0
20260905190429 84 24 1.0 3.0 0.00 0.01 0.00 71 1014.0
20260905190157 84 323 1.0 4.0 0.00 0.01 0.00 72 1013.9
20260905185634 84 5 2.0 4.0 0.00 0.01 0.00 71 1014.0
20260905185147 84 350 1.0 4.0 0.00 0.01 0.00 72 1014.0
20260905184650 84 355 0.0 4.0 0.00 0.01 0.00 72 1014.1
20260905183919 84 341 0.0 3.0 0.00 0.01 0.00 73 1014.1
20260905183359 84 34 2.0 3.0 0.00 0.01 0.00 73 1014.1
20260905182754 84 355 0.0 4.0 0.00 0.01 0.00 74 1014.1
20260905181924 83 331 1.0 6.0 0.00 0.01 0.00 74 1014.1
20260905181103 83 344 2.0 5.0 0.00 0.01 0.00 74 1014.1
20260905180612 84 339 1.0 5.0 0.00 0.07 0.00 75 1014.2
20260905180151 84 11 0.0 2.0 0.00 0.07 0.00 74 1014.3
20260905175640 84 9 0.0 2.0 0.00 0.07 0.00 75 1014.3
20260905174920 84 290 1.0 3.0 0.00 0.07 0.00 74 1014.3
20260905174429 84 80 1.0 5.0 0.00 0.07 0.00 75 1014.4
20260905173944 83 57 1.0 5.0 0.00 0.07 0.00 75 1014.4
20260905172939 83 327 0.0 4.0 0.00 0.07 0.00 74 1014.4
20260905172506 83 29 0.0 4.0 0.00 0.07 0.00 76 1014.6
20260905171947 83 9 0.0 3.0 0.00 0.07 0.00 75 1014.6
20260905171422 83 28 0.0 4.0 0.00 0.07 0.00 75 1014.5
20260905170649 83 5 0.0 2.0 0.00 0.07 0.00 75 1014.6
20260905165913 83 340 0.0 2.0 0.00 0.10 0.00 76 1014.7
20260905165515 83 34 1.0 2.0 0.00 0.10 0.00 76 1014.7
20260905164925 83 190 0.0 1.0 0.00 0.10 0.00 77 1014.7
20260905164416 83 190 0.0 4.0 0.00 0.10 0.00 77 1014.6
20260905163924 82 190 2.0 4.0 0.00 0.10 0.00 78 1014.7
20260905163431 82 186 0.0 2.0 0.00 0.10 0.00 79 1014.6
20260905162918 81 92 0.0 3.0 0.00 0.10 0.00 79 1014.6
20260905161946 81 240 1.0 3.0 0.00 0.10 0.00 82 1014.6
20260905161524 80 201 1.0 3.0 0.00 0.10 0.00 83 1014.5
20260905160913 79 61 0.0 4.0 0.00 0.10 0.00 84 1014.6
20260905160505 79 277 1.0 4.0 0.00 0.10 0.00 84 1014.5
20260905155938 79 101 0.0 2.0 0.00 0.10 0.00 85 1014.6
20260905155759 79 54 1.0 2.0 0.00 0.10 0.00 85 1014.6
20260905154933 78 196 0.0 0.0 0.00 0.10 0.00 86 1014.6
20260905154422 78 196 0.0 2.0 0.00 0.10 0.00 86 1014.6
20260905153917 78 196 0.0 4.0 0.00 0.10 0.00 86 1014.6
20260905153646 78 259 1.0 4.0 0.00 0.10 0.00 86 1014.7
20260905152932 77 283 0.0 2.0 0.00 0.10 0.00 86 1014.8
20260905152433 77 184 0.0 3.0 0.00 0.10 0.00 87 1014.7
20260905150914 76 29 0.0 4.0 0.00 0.10 0.00 87 1014.6
20260905150731 76 29 1.0 4.0 0.00 0.10 0.00 87 1014.5
20260905150053 76 28 1.0 4.0 0.00 0.10 0.00 87 1014.6
20260905145415 76 42 0.0 1.0 0.00 0.10 0.00 88 1014.6
20260905145030 76 61 0.0 3.0 0.00 0.10 0.00 88 1014.5
20260905144420 75 44 1.0 3.0 0.00 0.10 0.00 88 1014.6
20260905143914 75 173 0.0 2.0 0.00 0.10 0.00 88 1014.6
20260905143411 75 70 0.0 1.0 0.00 0.10 0.00 89 1014.6
20260905142921 75 61 0.0 4.0 0.00 0.10 0.00 89 1014.8
20260905142625 75 61 0.0 4.0 0.00 0.10 0.00 89 1014.8
20260905141944 75 17 0.0 2.0 0.00 0.10 0.00 90 1014.7
20260905141434 75 17 1.0 4.0 0.00 0.10 0.00 89 1014.7
20260905140931 74 9 1.0 4.0 0.00 0.10 0.00 89 1014.7
20260905140451 74 60 1.0 4.0 0.00 0.10 0.00 90 1014.6
20260905135926 74 61 1.0 4.0 0.00 0.10 0.00 90 1014.6
20260905135446 74 59 0.0 2.0 0.00 0.10 0.00 90 1014.6
20260905134925 74 47 1.0 2.0 0.00 0.10 0.00 90 1014.5
20260905134426 74 33 0.0 3.0 0.00 0.10 0.00 90 1014.3
20260905133927 74 80 0.0 3.0 0.00 0.10 0.00 90 1014.3
20260905133427 74 58 1.0 3.0 0.00 0.10 0.00 91 1014.3
20260905132926 74 76 0.0 3.0 0.00 0.10 0.00 91 1014.3
20260905132426 73 39 0.0 3.0 0.00 0.10 0.00 91 1014.3
20260905131920 73 41 0.0 4.0 0.00 0.10 0.00 91 1014.3
20260905131420 73 53 2.0 4.0 0.00 0.10 0.00 91 1014.3
20260905130939 73 63 2.0 5.0 0.00 0.10 0.00 90 1014.3
20260905130437 73 40 1.0 5.0 0.00 0.10 0.00 91 1014.2
20260905125914 73 14 1.0 3.0 0.00 0.10 0.00 91 1014.3
20260905125434 73 81 0.0 4.0 0.00 0.10 0.00 91 1014.3
20260905124932 73 11 2.0 4.0 0.00 0.10 0.00 91 1014.3
20260905124411 73 42 2.0 4.0 0.00 0.10 0.00 91 1014.3
20260905123930 73 32 0.0 0.0 0.00 0.10 0.00 92 1014.3
20260905123446 73 61 0.0 0.0 0.00 0.10 0.00 93 1014.1
20260905122925 73 67 0.0 0.0 0.00 0.10 0.00 93 1014.0
20260905122423 73 11 0.0 0.0 0.00 0.10 0.00 93 1014.0
20260905121924 73 49 0.0 0.0 0.00 0.10 0.00 93 1013.8
20260905121423 73 49 0.0 0.0 0.00 0.10 0.00 93 1013.8
20260905120942 73 49 0.0 0.0 0.00 0.10 0.00 93 1013.7
20260905120420 73 49 0.0 0.0 0.00 0.10 0.00 93 1013.7
20260905115940 72 49 0.0 0.0 0.00 0.10 0.00 93 1013.5
20260905115420 72 49 0.0 0.0 0.00 0.10 0.00 93 1013.5
20260905114919 73 49 0.0 0.0 0.00 0.10 0.00 93 1013.5
20260905114419 73 49 0.0 0.0 0.00 0.10 0.00 93 1013.5
20260905113917 73 49 0.0 0.0 0.00 0.10 0.00 93 1013.5
20260905113416 73 49 0.0 0.0 0.00 0.10 0.00 93 1013.5
20260905112916 73 49 0.0 2.0 0.00 0.10 0.00 93 1013.5
20260905112415 73 49 0.0 3.0 0.00 0.10 0.00 93 1013.5
20260905111914 73 64 2.0 3.0 0.00 0.10 0.00 93 1013.5
20260905111413 73 184 0.0 0.0 0.00 0.10 0.00 92 1013.3